Powrót do katalogu

CZ-6A DEB

AktywnySSO
NORAD 54628·DEBRIS·🇨🇳 China

Wystrzelony Nov 11, 2022 z Taiyuan Satellite Launch Center

Loading…

Następne Przeloty (najbliższe 24 godziny)

TLE

ŚwieżeSource: Space-Track

Epoka: Sep 14, 2026, 13:06 UTC

1 54628U 22151PE  26257.54615419  .00000313  00000-0  29688-3 0  9996
2 54628  98.9503 198.2969 0182913 280.2510  77.8065 13.81061112192275

Śledź CZ-6A DEB w czasie rzeczywistym z AllMySat

Download on the App Store